Wind_Speed
4 4 6 7 10 8 10 12 16 13 11 16 13 17 21 24 23 22 27 34 36 28 20 20 22 24 25 21 15 15 23 20 17 15 16 22 22 23 20 22 25 30 20 17
7 8 7 8 12 11 10 15 11 4 3 8 9 19 22 21 18 25 31 29 33 28 20 18 20 16 21 23 19 14 17 19 17 17 20 25 23 24 20 23 25 25 29 18
8 7 8 8 11 12 11 10 11 8 7 3 6 14 16 16 18 28 27 25 24 25 17 16 23 17 15 22 20 13 16 16 12 14 17 21 27 23 26 25 27 26 22 24
7 8 7 8 12 11 11 9 7 5 9 1 4 6 12 11 21 29 30 27 27 18 12 9 28 18 13 14 15 12 15 17 17 19 17 19 15 26 20 25 26 25 26 23
5 5 7 9 7 10 5 12 6 4 5 5 3 6 5 17 30 31 28 27 22 11 6 3 26 20 12 8 11 18 11 8 11 14 12 13 17 30 18 22 26 24 24 17
8 7 5 4 7 6 7 8 2 3 1 1 4 4 6 20 30 28 28 24 17 13 7 6 21 20 13 5 5 10 8 9 7 8 13 10 9 4 16 18 29 20 25 21
6 10 8 6 5 4 5 2 1 2 2 4 5 4 8 21 23 22 26 22 17 12 12 14 16 14 14 10 12 9 10 10 11 12 13 15 11 4 11 18 25 27 24 15
6 4 8 4 5 3 3 4 1 5 1 4 2 3 7 19 20 21 21 17 16 12 8 13 12 14 16 17 14 12 13 11 8 6 8 14 24 14 4 11 13 10 8 14
7 5 7 5 4 3 3 2 2 2 2 1 2 5 9 15 20 18 14 11 10 12 25 17 15 12 13 13 11 10 10 7 9 8 9 13 16 11 15 13 9 6 14 20
6 4 8 7 5 5 3 2 2 1 2 2 4 5 5 12 13 16 14 11 10 11 11 9 9 7 6 7 8 7 10 9 9 7 9 8 14 13 12 15 8 6 11 7
7 10 6 8 7 8 6 6 5 3 2 3 1 4 4 10 12 13 13 8 9 10 9 9 10 9 9 8 5 5 8 7 5 2 12 4 8 10 11 5 5 8 5 8
8 8 9 10 9 10 9 10 9 5 4 4 2 5 2 7 12 12 11 6 10 9 9 9 7 8 8 7 7 7 8 7 8 8 8 6 3 4 6 10 4 2 5 6
10 8 4 3 10 14 12 13 11 9 8 8 4 4 6 5 8 9 9 3 6 10 10 9 9 7 10 9 7 8 4 4 3 3 8 8 6 6 4 4 3 4 4 4
10 11 10 7 3 6 9 12 12 11 8 6 15 12 8 4 5 6 4 3 4 6 9 11 10 9 10 9 6 11 6 4 7 7 5 2 3 2 2 4 2 4 6 6
16 11 13 14 14 16 18 18 18 21 21 15 13 15 9 6 5 6 4 2 2 4 10 11 12 9 7 8 6 8 5 6 6 5 2 1 1 1 2 4 5 6 6 8
22 11 12 11 12 13 17 17 19 24 26 27 23 23 13 10 8 6 6 5 4 5 6 9 9 10 10 8 5 5 5 4 2 2 1 1 1 2 4 6 8 9 11 12
24 19 12 6 9 7 14 17 17 17 20 20 26 14 18 12 7 5 7 7 7 7 7 7 8 9 9 8 7 5 3 3 2 2 1 1 3 5 7 10 12 13 12 12
21 22 15 5 8 3 8 9 8 9 10 13 16 13 13 10 8 6 7 9 9 9 8 7 6 6 7 7 6 6 5 4 2 1 2 4 5 6 8 11 12 12 11 11
24 22 11 6 12 11 11 14 12 10 8 11 14 13 12 14 12 10 9 11 11 10 10 9 8 7 6 5 5 5 5 5 4 3 1 2 6 9 12 12 13 13 11 10
26 24 21 13 5 8 6 9 8 7 14 5 8 11 13 15 16 4 9 11 12 12 11 10 9 9 7 6 5 3 2 1 1 0 2 4 6 8 10 12 14 14 13 12
31 28 28 21 10 12 15 12 10 6 4 1 2 5 10 9 3 10 10 11 12 12 12 13 12 10 11 10 8 7 5 5 4 4 4 5 7 9 11 12 14 15 14 14
40 32 26 24 14 15 17 21 19 6 5 4 1 2 5 6 9 11 10 11 11 11 12 13 13 13 13 13 12 10 9 9 8 8 8 8 9 11 13 13 14 15 14 14
34 38 38 29 28 5 12 11 8 9 8 7 5 4 5 7 7 9 10 11 11 12 12 13 14 15 16 15 15 14 13 13 13 12 12 11 12 12 13 15 16 16 16 16
39 28 38 28 28 23 19 15 13 13 12 12 10 8 9 8 9 9 11 12 13 13 12 13 15 16 16 15 14 15 15 16 16 14 14 13 13 13 14 14 16 16 17 17
41 40 37 35 31 22 24 23 19 17 17 15 15 10 13 13 13 12 12 13 14 14 14 15 16 16 15 14 14 15 16 16 17 17 16 15 14 14 14 15 15 16 17 17
46 44 41 41 33 26 22 17 16 17 16 15 16 15 15 16 17 17 17 16 15 16 16 17 17 18 17 17 16 15 17 18 18 18 16 16 15 15 15 15 16 17 17 17
Wind_Direction
243 260 303 312 335 322 317 310 309 319 317 288 290 302 306 311 311 309 308 311 316 313 288 244 235 239 240 232 241 234 253 250 245 239 244 227 230 222 210 229 234 217 233 224
268 272 287 282 306 306 304 308 314 6 351 325 300 294 302 302 306 323 324 330 330 326 301 249 216 218 228 230 239 220 230 246 243 246 239 234 219 242 237 231 242 222 223 214
242 263 281 276 295 292 303 306 316 319 341 325 299 291 308 313 325 340 338 335 328 321 305 251 214 211 213 226 229 213 222 232 224 261 249 232 234 234 233 226 219 214 216 231
264 255 258 278 286 292 311 328 301 271 322 293 304 293 312 325 335 342 345 340 333 334 294 251 207 205 213 225 221 257 243 252 265 250 247 243 246 210 235 222 223 224 222 230
231 230 276 276 278 290 305 322 285 235 285 290 332 315 284 328 336 351 350 352 352 359 338 266 198 198 203 233 256 263 250 232 234 230 223 243 257 269 241 278 223 215 233 215
231 232 260 294 289 286 309 319 156 181 271 321 355 324 302 340 338 347 354 1 10 15 35 121 173 190 200 206 257 213 212 213 221 232 231 236 239 259 304 259 233 204 228 215
220 234 242 274 309 278 305 310 258 25 13 219 298 282 313 334 346 350 358 9 31 44 90 125 160 170 197 219 222 202 202 207 219 232 228 212 196 245 15 242 215 218 223 223
223 227 222 207 298 271 313 28 240 188 175 267 298 284 324 345 354 358 5 17 35 46 144 130 135 149 181 189 186 191 203 218 238 240 216 199 191 216 227 167 194 209 206 257
207 231 211 248 296 270 264 271 62 116 138 308 260 285 313 352 360 4 12 26 35 50 65 127 129 154 162 173 184 194 184 184 146 81 94 187 191 195 150 163 145 181 247 251
223 209 213 216 268 214 229 231 292 215 93 278 281 260 293 11 359 11 14 31 43 61 92 113 128 148 159 169 171 172 165 169 152 145 149 125 145 151 184 186 196 237 251 225
219 213 199 208 218 214 225 232 228 239 209 165 273 262 341 13 2 2 18 39 43 67 92 97 110 113 126 127 130 142 137 150 202 154 170 168 158 170 175 198 200 182 158 171
216 206 212 220 232 231 252 242 234 236 211 216 230 274 322 11 9 5 5 55 72 68 81 87 100 99 122 149 147 165 167 179 191 182 194 168 147 148 163 156 152 234 243 204
205 209 194 222 234 234 240 242 236 246 245 222 174 249 307 356 1 10 5 96 106 101 101 107 105 98 104 102 95 100 123 152 156 126 107 117 121 122 137 135 218 209 158 241
226 229 223 217 228 193 211 219 223 240 233 231 229 268 277 337 355 352 10 79 137 137 132 143 105 140 138 126 116 137 124 185 141 140 145 157 164 168 214 231 230 270 274 270
224 244 243 249 245 252 259 250 245 249 256 250 271 244 259 309 319 311 286 213 162 146 151 156 155 163 150 158 126 145 135 143 157 158 159 126 124 154 235 270 274 284 286 284
223 234 242 254 252 255 259 256 249 251 254 258 256 247 246 278 263 274 248 233 204 174 159 151 142 140 148 151 149 145 147 154 152 166 212 314 333 332 324 321 311 305 301 297
224 225 230 240 224 249 275 257 244 251 253 254 250 265 237 243 240 269 240 226 213 192 184 168 150 145 147 150 149 149 151 158 166 152 107 1 332 337 337 325 311 308 306 304
229 220 215 228 200 247 235 213 237 261 246 245 250 248 229 226 239 255 239 223 214 206 200 191 176 163 157 157 154 146 141 135 114 54 5 346 335 331 324 315 316 315 316 313
211 214 206 211 213 268 247 244 249 263 267 255 250 233 223 226 236 241 241 225 213 201 207 204 203 197 188 179 166 151 145 148 145 138 117 343 341 340 334 332 330 325 317 308
210 212 213 204 212 216 224 213 211 254 293 268 237 225 223 232 243 246 234 229 224 216 212 218 220 219 215 214 211 196 180 180 162 295 324 330 332 331 334 334 332 329 320 314
201 211 214 214 228 253 230 223 219 223 277 299 171 204 229 246 252 241 237 234 226 223 219 225 229 229 228 232 233 233 234 246 252 262 278 302 318 327 334 335 334 330 324 318
209 198 205 210 220 255 226 215 214 237 230 237 244 241 231 224 229 240 233 227 230 231 234 234 234 237 240 240 242 244 248 258 265 273 284 298 312 324 330 332 331 329 323 319
209 218 222 213 226 221 227 205 215 234 255 252 244 245 258 249 236 235 241 237 239 240 238 236 235 239 242 245 247 250 253 260 267 275 283 291 303 315 323 327 327 326 324 322
220 222 227 231 233 232 234 230 242 257 255 259 249 252 260 265 258 247 245 250 249 245 245 245 242 246 248 248 249 250 253 257 264 270 276 283 292 303 313 318 320 322 321 320
227 226 225 226 227 226 236 242 247 251 252 250 249 256 270 269 270 262 257 262 259 253 248 248 247 246 244 242 243 251 257 259 263 267 271 276 285 295 305 311 315 317 317 318
230 231 229 235 235 240 249 254 255 245 253 261 248 256 259 263 278 272 265 270 270 259 255 250 248 242 238 243 245 254 264 264 264 266 269 273 282 291 299 306 311 313 314 314
Height
3133 3133 3132 3132 3130 3129 3128 3126 3124 3123 3120 3118 3117 3115 3112 3109 3106 3102 3097 3093 3086 3081 3077 3081 3085 3088 3089 3090 3092 3097 3101 3105 3108 3111 3113 3117 3121 3118 3126 3131 3134 3138 3142 3144
3131 3130 3130 3130 3129 3127 3126 3124 3122 3120 3119 3117 3116 3112 3109 3107 3105 3101 3094 3086 3079 3075 3071 3071 3080 3081 3087 3090 3093 3095 3099 3103 3107 3108 3114 3117 3117 3119 3120 3126 3130 3134 3138 3141
3128 3129 3128 3128 3126 3125 3124 3122 3120 3119 3117 3116 3114 3110 3107 3106 3104 3098 3091 3084 3077 3070 3067 3066 3072 3078 3081 3084 3089 3093 3098 3101 3105 3108 3111 3112 3113 3115 3117 3122 3126 3131 3132 3138
3125 3125 3125 3125 3124 3123 3120 3119 3117 3116 3116 3116 3115 3112 3107 3106 3102 3095 3086 3078 3071 3066 3063 3064 3068 3074 3079 3082 3089 3094 3096 3098 3103 3105 3106 3107 3108 3103 3108 3118 3122 3128 3130 3134
3124 3123 3123 3122 3122 3120 3120 3116 3114 3113 3114 3114 3114 3111 3105 3103 3099 3091 3085 3077 3071 3066 3062 3062 3066 3073 3078 3083 3089 3091 3093 3096 3098 3099 3102 3103 3103 3104 3111 3116 3115 3118 3124 3127
3120 3121 3121 3120 3119 3118 3116 3114 3113 3112 3113 3114 3112 3111 3105 3101 3098 3091 3085 3078 3072 3069 3064 3063 3068 3073 3078 3083 3088 3089 3091 3091 3091 3094 3095 3096 3097 3103 3105 3107 3111 3116 3119 3123
3118 3118 3118 3118 3117 3116 3115 3113 3112 3114 3114 3113 3110 3110 3106 3103 3099 3092 3086 3080 3075 3073 3071 3069 3071 3075 3079 3083 3085 3087 3088 3088 3088 3090 3088 3091 3097 3101 3101 3104 3105 3111 3115 3121
3115 3116 3115 3115 3116 3115 3114 3113 3111 3118 3118 3112 3109 3108 3107 3103 3098 3093 3088 3083 3079 3077 3073 3074 3076 3077 3079 3082 3083 3083 3084 3087 3088 3089 3089 3092 3094 3097 3100 3103 3104 3107 3113 3115
3112 3113 3113 3114 3114 3115 3112 3112 3112 3110 3111 3112 3108 3106 3105 3102 3097 3093 3090 3087 3084 3080 3077 3079 3080 3081 3082 3083 3084 3085 3087 3087 3089 3091 3090 3090 3091 3096 3100 3104 3101 3105 3109 3112
3109 3111 3111 3111 3112 3112 3112 3113 3111 3110 3114 3113 3106 3104 3103 3102 3099 3095 3092 3089 3088 3085 3084 3083 3083 3084 3085 3085 3086 3088 3089 3090 3091 3093 3093 3095 3093 3096 3101 3100 3100 3104 3108 3109
3106 3108 3110 3109 3109 3109 3110 3110 3110 3109 3108 3109 3109 3102 3101 3100 3097 3095 3093 3091 3089 3089 3087 3087 3087 3086 3087 3088 3089 3089 3091 3092 3091 3092 3093 3095 3096 3097 3099 3100 3103 3108 3110 3109
3103 3105 3105 3106 3106 3106 3107 3106 3107 3107 3106 3105 3105 3102 3099 3098 3096 3095 3093 3092 3091 3091 3090 3089 3089 3089 3090 3091 3091 3092 3092 3094 3094 3094 3095 3094 3096 3097 3099 3102 3104 3108 3110 3107
3100 3101 3102 3103 3105 3103 3103 3103 3104 3104 3104 3101 3103 3099 3097 3097 3095 3095 3094 3093 3093 3093 3093 3092 3092 3092 3093 3094 3095 3096 3096 3096 3097 3098 3098 3099 3101 3101 3102 3104 3107 3107 3105 3106
3097 3097 3097 3097 3096 3096 3098 3099 3100 3101 3101 3098 3096 3095 3096 3096 3095 3094 3094 3093 3093 3094 3094 3093 3094 3094 3094 3096 3096 3097 3097 3098 3099 3099 3100 3100 3101 3101 3103 3104 3104 3104 3105 3103
3094 3093 3093 3094 3094 3094 3094 3095 3094 3094 3095 3095 3094 3092 3093 3094 3094 3093 3094 3093 3093 3093 3093 3094 3095 3095 3095 3096 3097 3098 3098 3098 3099 3100 3099 3099 3100 3101 3102 3101 3103 3101 3101 3101
3089 3090 3090 3090 3089 3089 3088 3088 3088 3088 3089 3089 3089 3088 3090 3091 3092 3092 3092 3093 3093 3093 3094 3094 3095 3096 3096 3096 3098 3098 3099 3099 3099 3099 3099 3100 3100 3099 3100 3099 3098 3098 3098 3097
3084 3086 3088 3087 3087 3087 3085 3080 3081 3081 3081 3083 3082 3084 3087 3088 3090 3090 3089 3090 3092 3092 3093 3094 3095 3096 3097 3098 3098 3099 3099 3100 3100 3099 3099 3099 3099 3098 3097 3096 3098 3096 3094 3093
3079 3082 3084 3083 3085 3086 3077 3077 3078 3077 3077 3077 3077 3079 3082 3085 3086 3087 3087 3088 3090 3091 3092 3092 3093 3095 3096 3098 3098 3099 3099 3099 3099 3098 3099 3099 3099 3098 3097 3098 3095 3092 3090 3089
3074 3076 3078 3080 3079 3076 3074 3073 3074 3073 3073 3072 3073 3075 3078 3080 3082 3083 3084 3086 3087 3089 3090 3091 3091 3092 3094 3095 3096 3097 3098 3098 3099 3099 3099 3099 3097 3095 3095 3094 3092 3089 3088 3087
3067 3070 3074 3074 3076 3073 3069 3069 3070 3072 3068 3068 3069 3071 3074 3075 3076 3081 3081 3083 3084 3085 3087 3088 3089 3090 3091 3092 3093 3094 3095 3096 3096 3097 3097 3097 3097 3097 3096 3093 3091 3087 3085 3084
3058 3063 3065 3068 3070 3064 3065 3066 3068 3071 3071 3067 3068 3069 3070 3071 3075 3076 3078 3079 3081 3082 3084 3085 3086 3088 3089 3090 3091 3092 3093 3094 3095 3095 3096 3095 3095 3093 3092 3090 3087 3085 3083 3081
3044 3051 3055 3064 3066 3061 3058 3061 3064 3065 3064 3065 3066 3067 3068 3069 3071 3072 3074 3076 3078 3079 3081 3082 3083 3085 3086 3088 3089 3090 3090 3091 3091 3092 3092 3092 3091 3090 3088 3086 3084 3083 3081 3079
3036 3039 3043 3046 3047 3051 3053 3057 3060 3060 3062 3062 3064 3065 3066 3067 3068 3069 3071 3073 3075 3076 3077 3079 3080 3081 3082 3084 3085 3087 3087 3087 3087 3088 3088 3088 3087 3086 3084 3083 3080 3078 3076 3074
3027 3030 3035 3040 3044 3047 3050 3053 3055 3056 3058 3059 3061 3063 3064 3065 3065 3067 3068 3069 3070 3072 3073 3075 3076 3077 3079 3080 3081 3082 3083 3084 3084 3084 3084 3084 3084 3083 3081 3080 3078 3076 3074 3071
3019 3023 3025 3031 3037 3042 3044 3046 3050 3052 3053 3055 3057 3060 3061 3061 3062 3063 3065 3066 3067 3067 3068 3070 3071 3073 3075 3076 3077 3078 3078 3079 3080 3080 3080 3080 3080 3079 3078 3076 3075 3073 3070 3068
3005 3009 3017 3023 3035 3036 3039 3043 3045 3047 3048 3050 3052 3055 3056 3057 3058 3059 3060 3061 3062 3062 3063 3065 3066 3068 3070 3071 3073 3074 3074 3075 3075 3076 3076 3075 3075 3075 3074 3073 3071 3069 3067 3064